Regional Weather Roundup
Issued by NWS

Home | Current Version | Previous Version | Text Only | Print | Product List | Glossary On
Versions: 1 2 3 4 5 6 7 8 9 10 11 12 13 14 15 16 17 18 19 20 21 22 23 24 25 26 27 28 29 30 31 32 33 34 35 36 37 38 39 40 41 42 43 44 45 46 47 48 49 50
000
ASUS43 KMKX 161321
RWRWI

WISCONSIN REGIONAL WEATHER ROUNDUP
NATIONAL WEATHER SERVICE MILWAUKEE/SULLIVAN WI
800 AM CDT WED APR 16 2014

NOTE: "FAIR" INDICATES FEW OR NO CLOUDS BELOW 12,000 FEET WITH NO
SIGNIFICANT WEATHER AND/OR OBSTRUCTIONS TO VISIBILITY.

WIZ001-002-006>008-014>016-023>028-161400-
NORTHWEST WISCONSIN

CITY           SKY/WX    TMP DP  RH WIND       PRES   REMARKS
SUPERIOR ARPT  CLOUDY    27  15  58 NE8       30.16R WCI  19
ASHLAND        CLOUDY    24  12  60 NE6       30.19R WCI  17
HAYWARD        LGT SNOW  25  21  85 E7        30.14R VSB 3/4 WCI  17
SIREN          LGT SNOW  27  25  93 E9        30.09S WCI  18
RICE LAKE      SNOW      28  25  89 E9        30.12R VSB 1/2 WCI  19
LADYSMITH      LGT SNOW  27  25  92 E9        30.15S VSB 1   WCI  18
EAU CLAIRE     CLOUDY    30  23  75 E15G22    30.08S WCI  19
MENOMONIE      CLOUDY    31  22  69 E14G21    30.08R WCI  21
NEW RICHMOND   CLOUDY    29  24  80 E21       30.02S WCI  16
OSCEOLA        LGT SNOW  29  27  93 E16G22    30.05S WCI  17
$$

WIZ003>005-009-010-017-018-161400-
NORTH CENTRAL WISCONSIN

CITY           SKY/WX    TMP DP  RH WIND       PRES   REMARKS
WOODRUFF       CLOUDY    23  13  65 SE6       30.17R WCI  15
RHINELANDER    CLOUDY    21  13  71 SE5       30.19R WCI  15
EAGLE RIVER    CLOUDY    21  12  68 SE3       30.18S
LAND O LAKES   PTSUNNY   17  15  90 CALM      30.20R
PHILLIPS       LGT SNOW  24  20  84 SE7       30.15R WCI  16
TOMAHAWK       LGT SNOW  25  16  68 CALM      30.18S
MEDFORD        LGT SNOW  25  22  89 SE9       30.15S WCI  15
MERRILL        LGT SNOW  24  21  87 CALM      30.20R VSB 1
$$

WIZ029-030-035-036-043>047-161400-
CENTRAL WISCONSIN

CITY           SKY/WX    TMP DP  RH WIND       PRES   REMARKS
WAUSAU         LGT SNOW  25  22  88 SE10      30.19S FOG     WCI  15
MOSINEE        NOT AVBL
MARSHFIELD     CLOUDY    28  20  71 SE13      30.16F WCI  17
STEVENS POINT  CLOUDY    26  22  85 E9        30.22S WCI  16
WAUPACA        PTSUNNY   32  25  74 E7        30.25S WCI  26
WAUTOMA        CLOUDY    31  22  69 E7        30.23S WCI  24
WISC RAPIDS    CLOUDY    29  20  69 E10       30.20F WCI  20
CAMP DOUGLAS   CLOUDY    30  23  74 SE15      30.15F WCI  19
$$

WIZ011>013-019>022-031-037>040-048>050-161400-
NORTHEAST WISCONSIN

CITY           SKY/WX    TMP DP  RH WIND       PRES   REMARKS
ANTIGO         CLOUDY    23  17  77 SE10      30.21R WCI  12
STURGEON BAY   CLOUDY    30  21  69 S8        30.31R WCI  23
GREEN BAY      CLOUDY    31  25  78 S8        30.29R WCI  23
MANITOWOC      CLOUDY    33  27  78 S13       30.31R WCI  24
APPLETON       FLURRIES  30  25  80 SE7       30.27S WCI  23
CLINTONVILLE   CLOUDY    30  23  74 S8        30.26R WCI  23
OSHKOSH        CLOUDY    32  26  78 SE10      30.25R WCI  24
$$

WIZ032>034-041-042-053>061-161400-
SOUTHWEST WISCONSIN

CITY           SKY/WX    TMP DP  RH WIND       PRES   REMARKS
LA CROSSE      CLOUDY    37  18  46 SE15      30.08R WCI  28
SPARTA         CLOUDY    33  20  60 E10G17    30.13F WCI  24
VIROQUA        PTSUNNY   32  21  64 SE21G31   30.07S WCI  20
BOSCOBEL       CLOUDY    37  21  52 VRB3      30.14F
PRAIRIE DU CHI CLOUDY    36  20  53 SE10G22   30.10R WCI  28
PLATTEVILLE    FAIR      34  24  65 SE12      30.15S WCI  26
$$

WIZ056-057-062-063-064-067-068-161400-
SOUTH CENTRAL WISCONSIN

CITY           SKY/WX    TMP DP  RH WIND       PRES   REMARKS
BARABOO/DELLS  CLOUDY    32  21  64 SE12      30.17F WCI  23
LONE ROCK      CLOUDY    33  22  63 E12       30.17F WCI  24
WATERTOWN      CLOUDY    32  24  72 SE8       30.24S WCI  24
MADISON        CLOUDY    34  22  61 SE13      30.22R WCI  25
MIDDLETON      CLOUDY    34  22  60 SE10      30.20S WCI  26
MONROE         CLOUDY    33  25  71 SE16G23   30.18F WCI  23
JANESVILLE     PTSUNNY   34  27  75 SE13      30.23R WCI  25
$$

WIZ051-052-058>065-066-070>072-161400-
SOUTHEAST WISCONSIN

CITY           SKY/WX    TMP DP  RH WIND       PRES   REMARKS
MILWAUKEE      PTSUNNY   34  22  61 S8        30.29R WCI  27
WAUKESHA       MOSUNNY   30  23  74 SE5       30.28R WCI  25
MILWAUKEE/TIMM CLOUDY    32  21  64 S6        30.29R WCI  26
RACINE         CLOUDY    35  24  64 S9        30.31R WCI  28
BURLINGTON     MOSUNNY   32  25  74 S9        30.27R WCI  24
KENOSHA        MOSUNNY   33  23  66 S8        30.29R WCI  26
FOND DU LAC    PTSUNNY   32  26  78 SE10      30.26R WCI  24
SHEBOYGAN      CLOUDY    32  27  81 SE10      30.29R WCI  24
WEST BEND      PTSUNNY   32  28  86 SE5       30.27R WCI  27
JUNEAU         MOSUNNY   31  23  70 SE9       30.26R WCI  23
$$

LSZ147-162-161400-
LAKE SUPERIOR

STATION/POSITION TIME  TEMP    WIND        PRES    WAVE
                       AIR SEA DIR/SP/G            HT/PER
                 (UTC) (F)     (DEG/KT/KT) (MB)    (FT/S)
DEVILS ISLAND    1300   25     110/  6/  8 1024.4R
PORT WING        1240   28     110/  2/  6 1021.7R
SAXON HARBOR     1200           CALM  /  5 1022.0
$$

LMZ867-665-643>646-161400-
LAKE MICHIGAN

STATION/POSITION TIME  TEMP    WIND        PRES    WAVE
                       AIR SEA DIR/SP/G            HT/PER
                 (UTC) (F)     (DEG/KT/KT) (MB)    (FT/S)
NORTHPORT PIER   1200   28     170/  2/  3 1025.7R
SISTER BAY       1223   31        CALM       N/A
KEWAUNEE LAKESHO 1300   33     170/ 16/ 18 1027.0R
SHEBOYGAN LAKESH 1300   34     150/ 17/ 19 1026.8R
PORT WASHINGTON  1200   35     160/ 11/ 16 1025.7
MILWAUKEE LAKESH 1300   35     180/ 12/ 14   N/A
KENOSHA   LAKESH 1300   36     190/ 11/ 19   N/A
$$

TC  - TEMPERATURE IN CELSIUS
VSB - VISIBILITY IN STATUTE MILES
WCI - WIND CHILL INDEX
HX  - HEAT INDEX




USA.gov is the U.S. government's official web portal to all federal, state and local government web resources and services.